Location: Charbonni�res
(45.9952°N, 2.9982°E)
Time: 18:15:37
(UTC+00:00)

BREEZE M DEB (TANK) - Pass Details

Date: 29 November 2020
Orbit: 289 x 16164 km, 49.5° (Epoch: 17 January)

Event Time Altitude Azimuth Distance (km) Brightness Sun altitude
Rises 05:30:24 0° 232° (SW) 7,176 7.6 -16.3°
Reaches altitude 10° 05:37:10 10° 230° (SW) 4,303 6.5 -15.2°
Maximum altitude 05:45:20 53° 156° (SSE) 834 3.4 -13.8°
Drops below altitude 10° 05:48:10 10° 77° (ENE) 1,522 5.5 -13.4°
Sets 05:49:31 0° 71° (ENE) 2,163 6.3 -13.1°
